Regional Weather Roundup
Issued by NWS Charleston, WV

Home | Current Version | Previous Version | Graphics & Text | Print | Product List | Glossary On
Versions: 1 2 3 4 5 6 7 8 9 10 11 12 13 14 15 16 17 18 19 20 21 22 23 24 25 26 27 28 29 30 31 32 33 34 35 36 37 38 39 40 41 42 43 44 45 46 47 48 49 50
000
ASUS41 KRLX 280910
RWRRLX
West Virginia Regional Weather Roundup
National Weather Service Charleston WV
400 AM EST SAT FEB 28 2015

Note: "fair" indicates few or no clouds below 12,000 feet with no
significant weather and/or obstructions to visibility.

WVZ003-281000-
Northern Panhandle of West Virginia

CITY           SKY/WX    TMP DP  RH WIND       PRES   REMARKS
WHEELING       PTCLDY     6  -4  63 CALM      30.67R
$$

WVZ009-281000-
Northwest West Virginia

CITY           SKY/WX    TMP DP  RH WIND       PRES   REMARKS
PARKERSBURG    CLEAR      5   0  79 CALM      30.72S HAZE
$$

WVZ006-281000-
Western West Virginia

CITY           SKY/WX    TMP DP  RH WIND       PRES   REMARKS
HUNTINGTON     CLOUDY    14   3  61 E3        30.66S
$$

WVZ015-281000-
West Central West Virginia

CITY           SKY/WX    TMP DP  RH WIND       PRES   REMARKS
CHARLESTON     MOCLDY    16   5  62 NE3       30.65F
$$

WVZ022-031-281000-
North Central West Virginia

CITY           SKY/WX    TMP DP  RH WIND       PRES   REMARKS
CLARKSBURG     CLEAR      6   3  87 NE3       30.66R
MORGANTOWN     CLEAR      8  -1  66 CALM      30.68R
$$

WVZ025-035-042-045-281000-
Southern West Virginia

CITY           SKY/WX    TMP DP  RH WIND       PRES   REMARKS
BECKLEY        CLOUDY    10   2  69 CALM      30.51S
LOGAN          CLOUDY    16   5  62 CALM      30.55S
BLUEFIELD      CLOUDY    12   3  67 E6        30.48R WCI   3
LEWISBURG      MOCLDY     5  -1  75 CALM      30.54S
$$

WVZ047-281000-
Northern Mountains of West Virginia

CITY           SKY/WX    TMP DP  RH WIND       PRES   REMARKS
ELKINS         CLEAR     -1  -4  87 CALM      30.60R
$$

WVZ052-281000-
Eastern Panhandle of West Virginia

CITY           SKY/WX    TMP DP  RH WIND       PRES   REMARKS
MARTINSBURG    PTCLDY    16   0  49 N3        30.72R
PETERSBURG     MOCLDY    15   6  69 CALM      30.69R
$$


USA.gov is the U.S. government's official web portal to all federal, state and local government web resources and services.